Location: Unspecified
(0.0000°N, 0.0000°E)
Time: 18:46:58
(UTC+00:00)

STARLINK-1172 - Pass Details

Date: 17 June 2025
Orbit: 546 x 548 km, 53.1° (Epoch: 20 July)

Event Time Altitude Azimuth Distance (km) Brightness Sun altitude
Rises 20:11:25 0° 295° (WNW) 2,705 8.4 -29.6°
Reaches altitude 10° 20:14:23 10° 273° (W) 1,815 7.0 -30.3°
Enters shadow 20:16:21 15° 244° (WSW) 1,506 6.2 -30.7°
